• MPC Preparation (Info)

  • MPEC 2014-U70 : 2014 US56

    The following Minor Planet Electronic Circular may be linked-to from your own Web pages, but must not otherwise be redistributed electronically.

    A form allowing access to any MPEC is at the bottom of this page.


    Read MPEC 2014-U69 Read MPEC 2014-U71


    M.P.E.C. 2014-U70                                Issued 2014 Oct. 26, 14:30 UT
    
         The Minor Planet Electronic Circulars contain information on unusual
             minor planets and routine data on comets.  They are published
       on behalf of Commission 20 of the International Astronomical Union by the
              Minor Planet Center, Smithsonian Astrophysical Observatory,
                              Cambridge, MA 02138, U.S.A.
    
                 Prepared using the Tamkin Foundation Computer Network
    
                                  MPC@CFA.HARVARD.EDU
                URL https://www.minorplanetcenter.net/    ISSN 1523-6714
    
                                       2014 US56
    
    Observations:
         K14U56S* C2014 10 24.28522 01 16 56.46 +06 23 43.7          21.2 VqEU070G96
         K14U56S  C2014 10 24.29130 01 16 55.48 +06 23 07.3          21.2 VqEU070G96
         K14U56S  C2014 10 24.29740 01 16 54.51 +06 22 29.3          21.1 VqEU070G96
         K14U56S  C2014 10 24.30350 01 16 53.59 +06 21 51.5          21.2 VqEU070G96
         K14U56S  C2014 10 24.34744 01 16 46.87 +06 17 18.7          20.7 VqEU070G96
         K14U56S  C2014 10 24.35439 01 16 45.86 +06 16 35.7          20.8 VqEU070G96
         K14U56S  C2014 10 24.35788901 16 45.06 +06 16 10.3          21.6 RtEU070H01
         K14U56S  C2014 10 24.36131 01 16 44.83 +06 15 53.1          20.1 VqEU070G96
         K14U56S  C2014 10 24.36524201 16 43.98 +06 15 24.6          22.1 RtEU070H01
         K14U56S  C2014 10 24.36823 01 16 43.78 +06 15 08.9          20.4 VqEU070G96
         K14U56S  C2014 10 24.38547001 16 41.07 +06 13 18.3          20.9 RtEU070H01
         K14U56S  C2014 10 24.39005901 16 40.41 +06 12 49.6          20.7 RtEU070H01
         K14U56S KC2014 10 25.13791 01 15 24.43 +04 54 26.1          21.2 RoEU070291
         K14U56S KC2014 10 25.13998 01 15 24.12 +04 54 12.7          21.3 RoEU070291
         K14U56S KC2014 10 25.14208 01 15 23.83 +04 53 59.8          21.7 RoEU070291
         K14U56S KC2014 10 26.12592 01 13 29.71 +03 07 13.4                oEU070291
         K14U56S KC2014 10 26.12798 01 13 29.40 +03 06 59.7                oEU070291
         K14U56S KC2014 10 26.13004 01 13 29.11 +03 06 46.4                oEU070291
         K14U56S KC2014 10 26.15022 01 13 23.48 +03 04 20.2          21.2 VqEU070H21
         K14U56S KC2014 10 26.16110 01 13 21.83 +03 03 08.3          21.5 VqEU070H21
         K14U56S HC2014 10 26.17193 01 13 20.16 +03 01 57.1          21.5 VqEU070H21
    
    Observer details:
    291 LPL/Spacewatch II.  Observer A. F. Tubbiolo.  Measurers R. S. McMillan,
        A. F. Tubbiolo.  1.8-m f/2.7 reflector + CCD.
    G96 Mt. Lemmon Survey.  Observer E. J. Christensen.  Measurers
        E. J. Christensen, A. R. Gibbs, A. D. Grauer, R. E. Hill, J. A. Johnson,
        R. A. Kowalski, S. M. Larson, F. C. Shelly.  1.5-m reflector + CCD.
    H01 Magdalena Ridge Observatory, Socorro.  Observers W. H. Ryan, E. V. Ryan.
        Measurer W. H. Ryan.  2.4-m f/8.9 reflector + CCD.
    H21 Astronomical Research Observatory, Westfield.  Observer R. Holmes.
        Measurers L. Buzzi, S. Foglia, T. Vorobjov, T. Linder.  0.61-m f/4.0
        astrograph + CCD.
    
    Orbital elements:
    2014 US56                                                Earth MOID = 0.0153 AU
    Epoch 2014 Dec. 9.0 TT = JDT 2457000.5                  MPC
    M 312.47116              (2000.0)            P               Q
    n   0.91902866     Peri.  287.49138     -0.71974732     -0.69213439
    a   1.0477315      Node   208.78170     +0.67188244     -0.67489155
    e   0.1492551      Incl.    6.43712     +0.17475061     -0.25587374
    P   1.07           H   26.0           G   0.15           U   7
    Residuals in seconds of arc
    141024 G96  0.6+  0.8-    141024 G96  0.1+  0.8+    141025 291  0.1+  0.2+
    141024 G96  0.0   0.4+    141024 H01  0.1+  0.1-    141026 291  0.0   0.0
    141024 G96  0.4-  0.1+    141024 G96  0.3-  0.3-    141026 291  0.1-  0.1-
    141024 G96  0.1-  0.1+    141024 H01  0.2+  0.2-    141026 291  0.0   0.2+
    141024 G96  0.4-  0.0     141024 H01  0.1+  0.2-    141026 H21  0.4-  0.5-
    141024 G96  0.1+  0.3+    141025 291  0.1+  0.0     141026 H21  0.1+  0.3-
    141024 H01  0.1+  0.2-    141025 291  0.1-  0.2-    141026 H21  0.4+  0.4+
    
    Ephemeris:
    2014 US56                a,e,i = 1.05, 0.15, 6                   q = 0.8914
    Date    TT    R. A. (2000) Decl.     Delta      r     Elong.  Phase     V
    2014 09 26    01 45 18.5 +30 05 27   0.1566  1.1320   143.1    32.1    23.6
    ...
    2014 10 11    01 37 01.7 +22 52 00   0.1068  1.1005   162.1    16.2    22.2
    ...
    2014 10 19    01 26 15.3 +14 26 27   0.08620 1.0821   175.0     4.6    21.2
    ...
    2014 10 25    01 15 35.4 +05 10 05   0.07472 1.0677   167.8    11.3    21.2
    2014 10 26    01 13 39.3 +03 22 11   0.07319 1.0653   165.4    13.6    21.2
    2014 10 27    01 11 41.2 +01 30 16   0.07178 1.0628   162.9    16.0    21.3
    ...
    2014 11 02    00 59 25.0 -10 48 34   0.06584 1.0479   146.5    31.5    21.5
    ...
    2014 11 10    00 42 34.5 -28 15 18   0.06441 1.0277   123.9    53.1    22.1
    ...
    2014 11 25    00 08 43.5 -54 34 57   0.07538 0.9900    89.9    85.7    23.4
    
    A. U. Tomatic                (C) Copyright 2014 MPC           M.P.E.C. 2014-U70
    

    Read MPEC 2014-U69 Read MPEC 2014-U71


    MPEC number:

    Enter an MPEC number in one of the following forms:

    • 1997-B01 (the full form)
    • J97B01 (the packed version of the full form)
    • B01 (the abbreviated form)